This demonstration page uses our WeatherBlox Daily Observations layout. Learn more.

Left ArrowRight Arrow

41.86663, -103.66717

Hourly Observations for June 22, 2016

Temp ( °F °C ) Dew Point ( °F °C ) Humidity (%) Winds ( mph kmh ) Pressure ( in mb ) Visibility ( mi km ) Precip ( " mm )
12:53 am 00:53 Clear 69 20.6 47 8.3 45 45 NW 9 15 29.71 1006 10 16 0.00 0.00
1:53 am 01:53 Clear 72 22.2 42 5.6 34 34 WSW 8 13 29.74 1007 10 16 0.00 0.00
2:53 am 02:53 Clear 73 22.8 45 7.2 37 37 WNW 12 19 29.78 1009 10 16 0.00 0.00
3:53 am 03:53 Clear 69 20.6 48 8.9 47 47 WNW 9 15 29.84 1011 10 16 0.00 0.00
4:53 am 04:53 Clear 65 18.3 45 7.2 49 49 NW 13 20 29.88 1012 10 16 0.00 0.00
5:53 am 05:53 Sunny 62 16.7 44 6.7 52 52 WNW 10 17 29.91 1013 10 16 0.00 0.00
6:53 am 06:53 Sunny 64 17.8 44 6.7 48 48 WNW 14 22 29.93 1014 10 16 0.00 0.00
7:53 am 07:53 Sunny 67 19.4 40 4.4 37 37 NW 12 19 29.96 1015 10 16 0.00 0.00
8:53 am 08:53 Sunny 73 22.8 36 2.2 26 26 NNW 13 20 29.97 1015 10 16 0.00 0.00
9:53 am 09:53 Sunny 76 24.4 35 1.7 23 23 NW 10 17 29.98 1015 10 16 0.00 0.00
10:53 am 10:53 Sunny 79 26.1 35 1.7 20 20 NNW 10 17 29.98 1015 10 16 0.00 0.00
11:53 am 11:53 Sunny 80 26.7 35 1.7 20 20 VRB 3 6 29.98 1015 10 16 0.00 0.00
12:53 pm 12:53 Sunny 82 27.8 36 2.2 19 19 N 6 9 29.96 1015 10 16 0.00 0.00
1:53 pm 13:53 Sunny 85 29.4 37 2.8 18 18 VRB 5 7 29.93 1014 10 16 0.00 0.00
2:53 pm 14:53 Sunny 86 30 40 4.4 20 20 S 8 13 29.92 1013 10 16 0.00 0.00
3:53 pm 15:53 Sunny 86 30 39 3.9 19 19 S 9 15 29.91 1013 10 16 0.00 0.00
4:53 pm 16:53 Sunny 87 30.6 40 4.4 19 19 VRB 3 6 29.90 1013 10 16 0.00 0.00
5:53 pm 17:53 Sunny 86 30 44 6.7 23 23 SE 9 15 29.91 1013 10 16 0.00 0.00
6:53 pm 18:53 Sunny 84 28.9 46 7.8 27 27 ESE 12 19 29.92 1013 10 16 0.00 0.00
7:53 pm 19:53 Sunny 79 26.1 49 9.4 35 35 ESE 9 15 29.93 1014 10 16 0.00 0.00
8:53 pm 20:53 Clear 75 23.9 48 8.9 39 39 SE 9 15 29.95 1014 10 16 0.00 0.00
9:53 pm 21:53 Clear 72 22.2 50 10 46 46 ESE 9 15 29.96 1014 10 16 0.00 0.00
10:53 pm 22:53 Clear 71 21.7 48 8.9 44 44 ESE 9 15 29.94 1014 10 16 0.00 0.00
11:53 pm 23:53 Clear 70 21.1 48 8.9 46 46 ESE 12 19 29.92 1013 10 16 0.00 0.00

Powered by AerisWeather